SCP
0 0 0 0 0 0 0 0 0 0 0 0 0 0 0 0 0 0 0 0 0 0 0 0 0 0 0 0 0 0 0 0 0 0 0 0 0 0 0 0 0 0 0
0 0 0 0 0 0 0 0 0 0 0 0 0 0 0 0 0 0 0 0 0 0 0 0 0 0 0 0 0 0 0 0 0 0 0 0 0 0 0 0 0 0 0
0 0 0 0 0 0 0 0 0 0 0 0 0 0 0 0 0 0 0 0 0 0 0 0 0 0 0 0 0 0 0 0 0 0 0 0 0 0 0 0 0 0 0
0 0 0 0 0 0 0 0 0 0 0 0 0 0 0 0 0 0 0 0 0 0 0 0 0 0 0 0 0 0 0 0 0 0 0 0 0 0 1 0 0 0 0
0 0 0 0 0 0 0 0 0 0 0 0 0 0 0 0 0 0 0 0 0 0 0 0 0 0 0 0 0 0 0 0 0 0 0 0 0 0 0 0 0 0 0
0 0 0 0 0 0 0 0 0 0 0 0 0 0 0 0 0 0 0 0 0 0 0 0 0 0 0 0 0 0 0 0 0 0 0 0 0 0 0 0 0 0 0
0 0 0 0 0 0 0 0 0 0 0 0 0 0 0 0 0 0 0 0 0 0 0 0 0 0 0 0 0 0 0 0 0 0 0 0 0 0 0 0 0 0 0
0 0 0 0 0 0 0 0 0 0 0 0 0 0 0 0 0 0 0 0 0 0 0 0 0 0 0 0 0 0 0 0 0 0 0 0 0 0 0 0 0 0 0
0 0 0 0 0 0 0 0 0 0 0 0 0 0 0 0 0 0 0 0 0 0 0 0 0 0 0 0 0 0 0 0 0 0 0 0 0 0 0 0 0 0 0
0 0 0 0 0 0 0 0 0 0 0 0 0 0 0 0 0 0 0 0 0 0 0 0 0 0 0 0 0 0 0 0 0 0 0 0 0 0 0 0 0 0 0
0 0 0 0 0 0 0 0 0 0 0 0 0 0 0 0 0 0 0 0 0 0 0 0 0 0 0 0 0 0 0 0 0 0 0 0 0 0 0 0 0 0 0
0 0 0 0 0 0 0 0 0 0 0 0 0 0 0 0 0 0 0 0 0 0 0 0 0 0 0 0 0 0 0 0 0 0 0 0 0 0 0 0 0 0 0
0 0 0 0 0 0 0 0 0 0 0 0 0 0 0 0 0 0 0 0 0 0 0 0 0 0 0 0 0 0 0 0 0 0 0 0 0 0 0 0 0 0 0
0 0 0 0 0 0 0 0 0 0 0 0 0 0 0 0 0 0 0 0 0 0 0 0 0 0 0 0 0 0 0 0 0 0 0 0 0 0 0 0 0 0 0
0 0 0 0 0 0 0 0 0 0 0 0 0 0 0 0 0 0 0 0 0 0 0 0 0 0 0 0 0 0 0 0 0 0 0 0 0 0 0 0 0 0 0
0 0 0 0 0 0 0 0 0 0 0 0 0 0 0 0 0 0 0 0 0 0 0 0 0 0 0 0 0 0 0 0 0 0 0 0 0 0 0 0 0 0 0
0 0 0 0 0 0 0 0 0 0 0 0 0 0 0 0 0 0 0 0 0 0 0 0 0 0 0 0 0 0 0 0 0 0 0 0 0 0 0 0 0 0 0
0 0 0 0 0 0 0 0 0 0 0 0 0 0 0 0 0 0 0 0 0 0 0 0 0 0 0 0 0 0 0 0 0 0 0 0 0 0 0 0 0 0 0
0 0 0 0 0 0 0 0 0 0 0 0 0 0 0 0 0 0 0 0 0 0 0 0 0 0 0 0 0 0 0 0 0 0 0 0 0 0 0 0 0 0 0
0 0 0 0 0 0 0 0 0 0 0 0 0 0 0 0 0 0 0 0 0 0 0 0 0 0 0 0 0 0 0 0 0 0 0 0 0 0 0 0 0 0 0
0 0 0 0 0 0 0 0 0 0 0 0 0 0 0 0 0 0 0 0 0 0 0 0 0 0 0 0 0 0 0 0 0 0 0 0 0 0 0 0 0 0 0
0 0 0 0 0 0 0 0 0 0 0 0 0 0 0 0 0 0 0 0 0 0 0 0 0 0 0 0 0 0 0 0 0 0 0 0 0 0 0 0 0 0 0
0 0 0 0 0 0 0 0 0 0 0 0 0 0 0 0 0 0 0 0 0 0 0 0 0 0 0 0 0 0 0 0 0 0 0 0 0 0 0 0 0 0 0
0 0 0 0 0 0 0 0 0 0 0 0 0 0 0 0 0 0 0 0 0 0 0 0 0 0 0 0 0 0 0 0 0 0 0 0 0 0 0 0 0 0 0
0 0 0 0 0 0 0 0 0 0 0 0 0 0 0 0 0 0 0 0 0 0 0 0 0 0 0 0 0 0 0 0 0 0 0 0 0 0 0 0 0 0 0
0 0 0 0 0 0 0 0 0 0 0 0 0 0 0 0 0 0 0 0 0 0 0 0 0 0 0 0 0 0 0 0 0 0 0 0 0 0 0 0 0 0 0
Wind_Speed
4 3 6 7 10 11 11 10 10 11 12 13 13 13 13 13 12 12 11 10 10 11 11 12 12 11 11 10 10 10 10 10 10 11 12 11 9 6 4 2 4 4 6
7 5 7 8 10 11 11 12 12 12 13 14 14 13 13 12 12 11 11 11 11 11 12 13 13 13 12 12 11 11 11 11 12 12 12 10 9 5 2 2 3 3 7
8 6 7 9 11 11 12 12 12 12 13 13 13 12 12 11 11 10 10 10 10 10 11 11 12 12 12 12 12 12 12 13 13 13 11 6 6 5 4 5 6 7 8
9 7 6 10 12 12 11 11 11 11 12 12 11 11 11 10 10 10 10 9 9 10 10 10 11 11 11 11 12 12 13 14 14 13 7 6 5 5 7 8 9 10 10
7 6 6 11 12 12 12 12 11 11 11 11 11 11 11 11 11 11 10 10 10 10 10 10 10 11 11 11 12 12 13 14 14 11 7 6 5 6 8 9 9 9 9
7 6 7 12 13 13 13 12 12 12 12 12 12 12 12 12 12 11 11 11 11 11 11 10 10 10 10 11 12 13 13 14 11 7 7 6 5 6 7 8 9 8 8
7 5 6 12 13 14 14 14 13 13 13 13 13 13 13 13 12 12 12 11 11 11 11 11 11 10 11 11 12 14 14 14 9 7 6 6 8 10 8 9 10 10 10
8 6 6 11 12 14 15 15 15 14 14 14 14 14 14 13 13 12 12 12 11 11 11 11 11 11 12 12 13 14 15 15 10 8 6 7 14 14 12 12 12 12 12
8 6 4 5 8 12 13 14 15 15 15 15 15 15 14 13 13 12 11 11 11 11 12 12 12 12 13 13 14 14 15 16 9 6 8 7 15 15 14 15 14 14 14
7 7 6 5 4 5 7 12 14 14 14 15 15 14 14 13 12 11 10 11 11 11 11 12 12 12 13 13 14 14 14 12 7 7 5 9 16 15 15 15 15 15 15
8 7 7 6 5 5 5 9 11 13 13 13 11 13 11 6 6 6 8 10 10 10 11 12 12 13 12 12 13 14 11 5 6 5 4 13 15 15 14 14 14 15 15
14 11 9 9 7 6 6 5 4 4 6 5 4 6 5 5 4 5 9 10 10 9 10 12 12 11 9 5 8 10 4 5 4 4 6 14 14 14 14 14 13 14 14
12 11 11 11 9 8 5 5 3 3 3 4 5 6 5 4 4 4 3 4 4 6 4 6 6 4 4 4 4 4 5 4 3 3 6 13 14 13 13 13 13 13 13
10 14 13 12 11 10 7 6 5 4 4 4 5 7 5 4 4 4 3 3 2 2 3 3 3 4 5 5 5 5 5 4 3 3 5 13 13 12 12 12 12 13 13
12 14 14 13 14 11 9 7 7 5 5 5 5 6 7 5 5 4 3 3 3 2 2 3 3 4 4 5 5 6 6 6 5 4 4 11 12 11 11 11 12 13 13
17 16 14 15 14 12 11 9 7 7 6 5 5 7 8 6 6 5 5 4 3 3 2 3 3 3 3 3 5 6 6 6 5 5 4 6 10 10 10 11 12 13 14
17 16 16 16 14 14 13 11 8 7 7 7 6 7 8 7 7 6 5 4 4 3 3 3 3 3 2 3 4 5 5 5 6 5 5 3 4 7 9 11 12 13 14
14 17 18 16 17 16 13 11 8 8 8 7 6 6 8 8 7 6 5 5 4 3 3 3 2 2 2 3 4 4 5 5 6 5 4 4 3 3 6 10 11 12 13
19 19 20 19 19 18 14 10 8 8 8 7 6 6 7 8 8 6 5 4 5 3 2 2 2 2 2 3 4 4 4 4 5 5 5 4 3 3 3 6 8 10 13
18 18 19 19 17 15 11 7 6 7 7 6 7 7 8 7 8 7 5 6 5 4 3 2 2 2 1 2 3 4 4 4 4 3 3 3 3 4 3 3 3 6 13
15 17 20 20 18 15 13 12 10 11 8 8 8 9 9 8 8 7 5 6 5 4 4 4 3 3 2 2 3 5 4 4 3 2 3 3 4 4 4 3 3 3 5
20 21 21 21 21 20 15 12 7 7 5 6 6 7 9 10 9 8 7 6 6 5 5 4 3 3 2 3 3 3 5 5 4 4 4 3 4 4 4 4 4 5 4
20 23 21 23 21 20 14 9 6 4 3 5 7 8 10 10 10 8 8 7 6 6 5 5 5 5 4 2 2 3 2 2 5 4 4 4 4 3 3 4 6 5 5
22 20 20 21 19 18 16 16 16 13 13 12 7 7 8 10 10 9 9 8 7 5 6 6 5 4 5 4 2 1 2 2 2 6 4 3 4 4 4 5 5 5 6
16 17 17 18 18 18 19 19 18 15 10 6 6 9 9 8 10 10 10 8 8 6 7 7 5 5 4 5 4 3 2 2 3 3 8 7 4 3 4 4 5 6 8
11 13 14 17 18 19 20 19 20 18 13 11 10 12 10 7 8 11 10 9 8 7 7 7 6 7 5 5 4 4 4 3 3 3 5 6 9 6 5 6 6 6 6
Wind_Direction
173 183 133 134 144 148 144 138 133 126 119 113 108 102 97 90 82 74 69 65 62 58 55 52 50 50 45 40 37 33 29 21 10 3 356 348 339 322 315 9 8 11 23
160 155 138 136 130 130 130 127 124 121 117 112 107 102 96 91 84 75 67 61 58 56 54 52 48 44 39 35 32 28 22 12 2 358 353 350 344 330 310 54 27 16 13
144 141 142 141 135 129 125 124 122 119 114 109 105 100 96 93 89 82 74 68 63 58 54 50 47 41 34 29 26 22 15 5 357 352 354 352 348 25 67 58 37 24 14
144 143 151 148 143 138 132 126 121 116 112 109 106 102 101 98 94 89 83 76 69 63 56 49 43 38 31 26 21 16 10 2 354 352 355 352 353 48 67 55 38 23 10
139 143 156 153 151 148 143 137 130 124 119 115 112 110 107 103 98 93 87 80 74 67 60 51 43 36 29 23 18 13 8 2 357 356 350 351 351 31 62 58 46 30 12
140 144 161 158 155 152 147 142 137 131 127 122 118 114 110 106 101 96 91 85 79 72 65 58 50 42 35 29 22 15 10 5 4 355 353 354 349 355 44 52 43 31 18
142 148 167 160 157 154 150 146 141 137 133 128 124 120 116 111 107 103 97 91 85 78 70 63 56 51 46 39 31 25 20 15 17 2 360 3 0 5 28 37 28 19 12
144 150 163 160 159 158 154 149 145 143 140 136 131 127 122 117 112 107 102 97 91 83 76 69 61 56 50 43 36 30 28 26 16 7 2 9 9 13 21 20 13 7 1
145 145 149 156 161 160 155 152 149 147 145 141 136 129 122 117 112 107 102 98 93 85 79 73 65 59 51 45 39 33 26 22 18 10 11 8 5 8 9 8 4 358 354
157 158 159 155 150 151 153 152 150 150 149 144 137 131 125 119 112 105 98 97 92 87 81 74 65 59 50 43 38 32 26 20 11 6 3 359 1 2 2 0 357 352 349
181 180 170 166 160 154 153 157 151 152 153 148 144 139 126 110 104 98 100 97 92 86 80 73 63 56 48 37 32 30 24 11 5 1 357 356 358 359 357 356 353 349 346
194 190 180 173 169 166 167 152 152 149 151 144 140 133 128 127 131 117 105 97 89 79 73 68 61 50 45 29 22 23 13 3 7 354 354 354 356 354 351 350 349 347 346
192 188 185 180 175 174 169 165 167 156 153 155 153 147 136 126 123 106 96 92 83 75 62 57 50 41 33 24 14 7 -0 357 350 341 342 350 351 348 348 348 348 347 348
188 195 186 181 179 180 173 176 175 169 168 168 167 157 146 141 140 138 130 127 108 99 88 68 56 42 32 20 11 2 351 344 334 332 331 344 345 347 349 352 353 354 354
199 196 190 183 183 181 178 182 182 182 178 173 168 167 160 156 155 150 145 141 134 121 100 82 61 44 30 16 7 356 339 331 325 327 327 334 341 346 353 358 1 1 360
205 199 190 188 185 181 183 186 183 182 177 174 175 174 167 161 158 155 151 151 149 141 127 107 85 60 32 8 354 341 325 319 317 321 316 322 332 341 350 357 1 1 1
205 195 191 190 185 185 186 187 182 181 176 180 180 175 171 165 162 157 154 156 159 149 132 113 95 78 46 9 343 327 315 314 315 317 311 303 314 329 342 352 357 360 0
198 193 193 191 189 189 187 184 182 181 180 183 180 176 173 168 163 157 157 161 160 149 139 129 110 89 45 5 333 315 310 308 314 313 308 309 314 321 335 344 354 1 1
201 195 191 191 189 189 185 180 180 178 182 182 179 180 177 170 165 160 160 160 155 145 146 140 105 101 45 353 318 305 307 309 313 312 316 323 332 336 338 346 5 6 2
203 195 191 190 187 182 176 168 170 179 184 181 184 185 178 173 166 158 158 162 154 144 144 133 116 90 59 339 325 319 310 306 304 303 322 344 350 354 358 3 14 5 358
199 194 190 188 184 177 180 182 184 191 188 189 191 186 180 174 168 163 162 164 160 156 160 154 130 98 52 4 14 347 334 322 331 29 6 354 351 352 354 13 21 9 344
199 196 192 190 185 185 188 186 177 169 181 188 186 184 182 177 174 174 168 170 166 155 157 164 154 129 83 39 73 34 352 343 339 348 341 349 345 348 352 1 354 342 332
200 196 193 190 187 186 175 160 140 132 129 178 194 191 189 182 179 175 173 169 170 163 165 170 167 145 132 86 84 111 83 301 308 312 313 316 316 325 322 329 324 321 318
204 195 192 187 184 180 171 174 175 187 196 196 186 182 183 184 182 177 174 174 172 168 167 173 173 155 138 138 116 112 155 168 284 313 293 258 270 278 280 295 300 294 291
197 188 187 182 181 178 179 183 187 196 197 168 163 175 184 187 185 180 176 175 175 172 171 171 166 160 146 145 151 148 153 178 201 247 295 306 295 242 248 258 263 267 272
182 180 178 179 183 181 184 187 193 196 184 177 184 186 188 186 187 186 179 178 177 176 175 174 168 167 160 151 155 161 165 176 185 206 263 297 302 294 284 264 256 257 259